S5 DEB, 44066

Orbit data source: Space-Track

S5 DEB, 44066 is space debris in GEO originally from a launch on Fri, 22 Feb 2019 UTC launched from the Air Force Eastern Test Range (AFETR). Debris objects in space refer to the collection of defunct objects orbiting the Earth. Examples of debris include non-operational satellites, rocket bodies, and fragments generated from explosions, collisions, or faulty payload assembly.

Not visible in the next 10 days
Identifier
44066, 2019-009E
Orbit
GEO
Country
Flag of USUS
Related business
Manufacturer
Spaceflight Ind
Mission
Spacecraft
Bus & Motor
Unknown
Mass
~30 kg wet, ~30 kg dry
Launch date (UTC)
2019-02-22 (8 years ago)
Launch vehicle
Unknown
Launch site
Air Force Eastern Test Range (AFETR)
Object type
Payload
Rocket body
Debris
Shape & HBR
Cone, 0.9 m
Radar Cross Section
0.635 m², Large (>1 m²)

Expand to show TLE details & history
Last TLE update: 3 days ago

TLE from 3 days ago
0 S5 DEB
1 44066U 19009E   26255.15353262 -.00000061  00000-0  00000-0 0  9994
2 44066   6.8023  69.8778 0009259 155.8662 204.3979  0.98986365 27225
Epoch: 2026-09-12T03:41Z
TLE epoch observation values (Epoch: 2026-09-12T03:41:05.218Z)
Latitude
-0.00001°
Longitude
23.64795°
Altitude
36,186.07 km
Speed
3.059 km/s
True Right ascension
04h 40m 20s
True Declination
0° 00' 00"
Sunlit
Object was in daylight at epoch
Visualization orbit readout
Latitude
Unknown
Longitude
Unknown
Altitude
Unknown
Speed
Unknown
Apparent Right ascension
Unknown
Apparent Declination
Unknown
Sunlit
N/A
Visualization observer readout
Local Sidereal Time
02:30:17
Azimuth
Unknown
Elevation
Unknown
Doppler factor
Unknown
Orbital elements
Apogee altitude
36,191.257 km
Perigee altitude
36,112.5 km
Semi-major axis
42,530.016 km
Eccentricity
0.00093
Inclination
6.8023°
RAAN
69.8778°
Arg. of periapsis
155.8662°
True anomaly
204.35412°
Mean anomaly
204.3979°
Eccentric anomaly
204.376°
Mean motion
0.24746 °/min
Orbital period
1,454.8 mins
BSTAR
0
Loading maneuver chart data...
Computing Atmospheric mass density...
Loading historical data...
Loading historical data...
Loading historical data...
Loading historical data...
Loading historical data...
Loading historical data...
Loading historical data...
Other satellites on launch #9 in the year 2019 (2019-02-22 UTC)

Documentation

Showing up to 5 results
|